Location: Bu�n Treun
(12.1333°N, 108.3167°E)
Time: 23:33:42
(UTC+00:00)

GPS 2-04 Rocket1 - Pass Details

Date: 13 July 2020
Orbit: 418 x 549 km, 35.6° (Epoch: 03 August)

Event Time Altitude Azimuth Distance (km) Brightness Sun altitude
Exits shadow 21:29:29 - 309° (NW) 2,265 5.7 -14.2°
Reaches altitude 10° 21:31:02 10° 311° (NW) 1,647 5.0 -13.8°
Maximum altitude 21:34:48 70° 36° (NE) 526 2.9 -13.0°
Drops below altitude 10° 21:38:45 10° 120° (ESE) 1,726 5.8 -12.1°
Sets 21:41:02 0° 122° (ESE) 2,634 6.8 -11.6°
